XIO229 EGLF-CYUL

Flight info

Callsign XIO229
Flight time 6h 39m
Altitude 43000
Route HAZEL L620 SAM N19 ADKIK DCT MOPAT DCT GOTEM DCT KURUM DCT MALOT/M083F430 NATE JOOPY/N0480F430 DCT SATIP Q907 MIILS DCT KEBIG ROCKT2
Aircraft C700/M-SBDE1E2E3FGHIJ1J3J4J7P2RWXYZ/LB2D1

Departure

Time 2026-05-07 12:45
Airport Farnborough Airport (EGLF)

Arrival

Time 2026-05-07 19:25
Airport Montreal / Pierre Elliott Trudeau International Airport (CYUL)
Time Latitude Longitude Altitude Speed Heading
2026-05-07 11:04 51.28153 -0.77829 299 ft 0 kts 35°
2026-05-07 12:39 51.28160 -0.77816 217 ft 5 kts 61°
2026-05-07 12:40 51.28180 -0.77713 217 ft 12 kts 51°
2026-05-07 12:40 51.28223 -0.77605 215 ft 13 kts 82°
2026-05-07 12:40 51.28193 -0.77466 214 ft 13 kts 108°
2026-05-07 12:40 51.28167 -0.77339 217 ft 11 kts 108°
2026-05-07 12:41 51.28144 -0.77227 217 ft 10 kts 108°
2026-05-07 12:41 51.28124 -0.77125 219 ft 9 kts 108°
2026-05-07 12:41 51.28107 -0.77035 220 ft 8 kts 107°
2026-05-07 12:41 51.28092 -0.76957 222 ft 7 kts 107°
2026-05-07 12:42 51.28080 -0.76894 224 ft 6 kts 107°
2026-05-07 12:42 51.28065 -0.76821 226 ft 6 kts 109°
2026-05-07 12:42 51.28071 -0.76745 227 ft 11 kts 59°
2026-05-07 12:42 51.28161 -0.76640 227 ft 19 kts 33°
2026-05-07 12:43 51.28210 -0.76503 226 ft 13 kts 96°
2026-05-07 12:43 51.28205 -0.76349 225 ft 15 kts 91°
2026-05-07 12:43 51.28202 -0.76185 226 ft 9 kts 92°
2026-05-07 12:43 51.28174 -0.76139 228 ft 3 kts 176°
2026-05-07 12:44 51.28155 -0.76139 229 ft 2 kts 180°
2026-05-07 12:44 51.28152 -0.76139 229 ft 1 kts 181°
2026-05-07 12:44 51.28113 -0.76140 229 ft 11 kts 175°
2026-05-07 12:44 51.28057 -0.76202 229 ft 11 kts 242°
2026-05-07 12:45 51.27900 -0.76671 230 ft 88 kts 242°
2026-05-07 12:45 51.27497 -0.77880 276 ft 151 kts 241°
2026-05-07 12:45 51.26990 -0.79389 1025 ft 156 kts 240°
2026-05-07 12:45 51.26241 -0.80737 1879 ft 173 kts 217°
2026-05-07 12:46 51.25236 -0.82011 2624 ft 198 kts 226°
2026-05-07 12:46 51.24296 -0.83731 3539 ft 212 kts 229°
2026-05-07 12:46 51.23142 -0.85184 4732 ft 214 kts 208°
2026-05-07 12:46 51.21799 -0.86154 5903 ft 218 kts 205°
2026-05-07 12:47 51.20409 -0.87163 7089 ft 221 kts 205°
2026-05-07 12:47 51.19077 -0.88124 8175 ft 225 kts 204°
2026-05-07 12:47 51.17632 -0.89158 9369 ft 229 kts 204°
2026-05-07 12:47 51.16163 -0.90209 10556 ft 233 kts 203°
2026-05-07 12:48 51.14676 -0.91274 11697 ft 237 kts 203°
2026-05-07 12:48 51.13230 -0.92586 12801 ft 243 kts 219°
2026-05-07 12:48 51.12127 -0.94640 13920 ft 248 kts 238°
2026-05-07 12:48 51.11233 -0.97014 14907 ft 251 kts 231°
2026-05-07 12:49 51.10086 -0.99210 15536 ft 272 kts 234°
2026-05-07 12:49 51.09052 -1.01904 16009 ft 300 kts 239°
2026-05-07 12:49 51.07968 -1.04910 16490 ft 327 kts 238°
2026-05-07 12:49 51.06678 -1.08058 17135 ft 345 kts 234°
2026-05-07 12:50 51.05306 -1.11171 18338 ft 347 kts 235°
2026-05-07 12:50 51.03946 -1.14390 19217 ft 352 kts 236°
2026-05-07 12:50 51.02606 -1.17663 20047 ft 356 kts 237°
2026-05-07 12:50 51.01235 -1.20956 20824 ft 360 kts 236°
2026-05-07 12:51 50.99832 -1.24270 21601 ft 364 kts 236°
2026-05-07 12:51 50.98417 -1.27625 22364 ft 368 kts 236°
2026-05-07 12:51 50.96992 -1.31026 23119 ft 371 kts 237°
2026-05-07 12:51 50.95781 -1.34678 23818 ft 376 kts 247°
2026-05-07 12:52 50.94998 -1.38638 24451 ft 379 kts 257°
2026-05-07 12:52 50.94484 -1.42758 25071 ft 383 kts 258°
2026-05-07 12:52 50.93963 -1.46854 25691 ft 386 kts 258°
2026-05-07 12:52 50.93422 -1.51034 26288 ft 389 kts 258°
2026-05-07 12:53 50.92879 -1.55270 26883 ft 392 kts 258°
2026-05-07 12:53 50.92336 -1.59518 27461 ft 396 kts 258°
2026-05-07 12:53 50.91785 -1.63803 28033 ft 399 kts 258°
2026-05-07 12:53 50.91224 -1.68125 28604 ft 402 kts 258°
2026-05-07 12:54 50.90657 -1.72501 29164 ft 406 kts 258°
2026-05-07 12:54 50.90087 -1.76887 29718 ft 409 kts 258°
2026-05-07 12:54 50.89508 -1.81320 30241 ft 412 kts 258°
2026-05-07 12:54 50.88925 -1.85775 30700 ft 415 kts 258°
2026-05-07 12:55 50.88531 -1.88776 30962 ft 418 kts 258°
2026-05-07 12:55 50.87939 -1.93278 31402 ft 420 kts 257°
2026-05-07 12:55 50.87339 -1.97823 31807 ft 424 kts 257°
2026-05-07 12:55 50.86730 -2.02422 32225 ft 427 kts 257°
2026-05-07 12:56 50.86115 -2.07047 32619 ft 430 kts 257°
2026-05-07 12:56 50.85495 -2.11699 33029 ft 432 kts 257°
2026-05-07 12:56 50.84874 -2.16342 33452 ft 434 kts 257°
2026-05-07 12:56 50.84246 -2.21025 33791 ft 437 kts 257°
2026-05-07 12:57 50.83612 -2.25731 34131 ft 439 kts 257°
2026-05-07 12:57 50.82970 -2.30486 34407 ft 442 kts 257°
2026-05-07 12:57 50.82323 -2.35258 34677 ft 446 kts 257°
2026-05-07 12:57 50.81677 -2.40015 34939 ft 449 kts 257°
2026-05-07 12:58 50.81015 -2.44866 35222 ft 452 kts 257°
2026-05-07 12:58 50.80448 -2.49766 35587 ft 453 kts 263°
2026-05-07 12:58 50.80330 -2.54741 35926 ft 456 kts 270°
2026-05-07 12:58 50.80673 -2.59738 36253 ft 458 kts 279°
2026-05-07 12:59 50.81445 -2.64637 36564 ft 461 kts 284°
2026-05-07 12:59 50.82309 -2.69521 36892 ft 462 kts 284°
2026-05-07 12:59 50.83158 -2.74410 37206 ft 462 kts 283°
2026-05-07 12:59 50.84010 -2.79334 37508 ft 463 kts 283°
2026-05-07 13:00 50.84864 -2.84242 37807 ft 464 kts 283°
2026-05-07 13:00 50.85722 -2.89179 38065 ft 466 kts 283°
2026-05-07 13:00 50.86569 -2.94083 38363 ft 466 kts 283°
2026-05-07 13:00 50.87431 -2.99104 38642 ft 467 kts 283°
2026-05-07 13:01 50.88275 -3.04022 38870 ft 468 kts 283°
2026-05-07 13:01 50.89128 -3.08998 39131 ft 467 kts 283°
2026-05-07 13:01 50.89976 -3.13963 39370 ft 467 kts 283°
2026-05-07 13:01 50.90820 -3.18924 39634 ft 466 kts 283°
2026-05-07 13:02 50.91662 -3.23886 39861 ft 466 kts 283°
2026-05-07 13:02 50.92503 -3.28853 40079 ft 466 kts 283°
2026-05-07 13:02 50.93337 -3.33797 40299 ft 466 kts 283°
2026-05-07 13:02 50.94174 -3.38767 40502 ft 466 kts 283°
2026-05-07 13:03 50.95010 -3.43749 40744 ft 465 kts 283°
2026-05-07 13:03 50.95840 -3.48711 40946 ft 465 kts 283°
2026-05-07 13:03 50.96667 -3.53667 41169 ft 465 kts 283°
2026-05-07 13:03 50.97492 -3.58625 41362 ft 465 kts 283°
2026-05-07 13:04 50.98315 -3.63586 41556 ft 464 kts 283°
2026-05-07 13:04 50.99137 -3.68559 41730 ft 465 kts 283°
2026-05-07 13:04 50.99955 -3.73518 41896 ft 465 kts 283°
2026-05-07 13:04 51.00771 -3.78483 42119 ft 464 kts 283°
2026-05-07 13:05 51.01586 -3.83453 42271 ft 464 kts 283°
2026-05-07 13:05 51.02396 -3.88410 42448 ft 464 kts 283°
2026-05-07 13:05 51.03195 -3.93311 42619 ft 464 kts 283°
2026-05-07 13:05 51.04001 -3.98267 42784 ft 464 kts 283°
2026-05-07 13:06 51.04805 -4.03234 42953 ft 464 kts 283°
2026-05-07 13:06 51.05610 -4.08216 43021 ft 466 kts 283°
2026-05-07 13:06 51.07224 -4.18253 43028 ft 468 kts 283°
2026-05-07 13:07 51.08821 -4.28240 43024 ft 465 kts 283°
2026-05-07 13:07 51.10403 -4.38201 43022 ft 461 kts 283°
2026-05-07 13:08 51.11962 -4.48070 43022 ft 460 kts 283°
2026-05-07 13:08 51.13520 -4.57997 43022 ft 463 kts 282°
2026-05-07 13:09 51.15075 -4.67961 43027 ft 465 kts 282°
2026-05-07 13:09 51.16632 -4.77999 43029 ft 468 kts 282°
2026-05-07 13:10 51.18174 -4.88005 43031 ft 465 kts 282°
2026-05-07 13:10 51.19704 -4.97996 43025 ft 463 kts 282°
2026-05-07 13:11 51.21220 -5.07952 43020 ft 460 kts 282°
2026-05-07 13:11 51.22719 -5.17865 43025 ft 460 kts 282°
2026-05-07 13:12 51.24216 -5.27823 43029 ft 462 kts 282°
2026-05-07 13:12 51.25711 -5.37831 43026 ft 465 kts 282°
2026-05-07 13:13 51.27195 -5.47829 43025 ft 466 kts 282°
2026-05-07 13:13 51.28680 -5.57899 43012 ft 463 kts 282°
2026-05-07 13:14 51.30140 -5.67858 43012 ft 457 kts 282°
2026-05-07 13:14 51.31581 -5.77761 43013 ft 460 kts 282°
2026-05-07 13:15 51.33036 -5.87821 43023 ft 465 kts 282°
2026-05-07 13:15 51.34480 -5.97866 43025 ft 467 kts 281°
2026-05-07 13:16 51.35925 -6.07990 43018 ft 465 kts 281°
2026-05-07 13:16 51.37353 -6.18061 43011 ft 463 kts 281°
2026-05-07 13:17 51.38769 -6.28111 43014 ft 461 kts 281°
2026-05-07 13:17 51.40170 -6.38121 43018 ft 460 kts 281°
2026-05-07 13:18 51.41563 -6.48148 43018 ft 461 kts 281°
2026-05-07 13:18 51.42940 -6.58121 43013 ft 462 kts 281°
2026-05-07 13:19 51.44321 -6.68192 43015 ft 463 kts 281°
2026-05-07 13:19 51.45692 -6.78262 43008 ft 464 kts 281°
2026-05-07 13:20 51.47061 -6.88384 43010 ft 464 kts 281°
2026-05-07 13:20 51.48423 -6.98526 43009 ft 465 kts 281°
2026-05-07 13:21 51.50167 -7.08507 43007 ft 467 kts 292°
2026-05-07 13:21 51.53524 -7.17433 43012 ft 468 kts 304°
2026-05-07 13:22 51.57352 -7.25899 43011 ft 467 kts 304°
2026-05-07 13:22 51.61163 -7.34363 42998 ft 466 kts 304°
2026-05-07 13:23 51.64925 -7.42737 42989 ft 464 kts 304°
2026-05-07 13:23 51.68698 -7.51173 42993 ft 464 kts 304°
2026-05-07 13:24 51.72478 -7.59645 42995 ft 465 kts 304°
2026-05-07 13:24 51.76255 -7.68143 42992 ft 467 kts 304°
2026-05-07 13:25 51.80052 -7.76710 42995 ft 469 kts 304°
2026-05-07 13:25 51.83936 -7.85197 42989 ft 470 kts 307°
2026-05-07 13:26 51.87981 -7.93486 42991 ft 468 kts 306°
2026-05-07 13:26 51.91962 -8.01732 42982 ft 466 kts 306°
2026-05-07 13:27 51.95958 -8.09997 42979 ft 464 kts 306°
2026-05-07 13:27 51.99922 -8.18243 42975 ft 464 kts 306°
2026-05-07 13:28 52.03904 -8.26542 42980 ft 466 kts 306°
2026-05-07 13:28 52.07886 -8.34876 42985 ft 468 kts 306°
2026-05-07 13:29 52.11884 -8.43266 42976 ft 470 kts 306°
2026-05-07 13:29 52.15895 -8.51711 42975 ft 471 kts 306°
2026-05-07 13:30 52.19885 -8.60141 42970 ft 469 kts 306°
2026-05-07 13:30 52.23101 -8.69278 42971 ft 462 kts 289°
2026-05-07 13:31 52.24784 -8.79271 42962 ft 456 kts 282°
2026-05-07 13:31 52.26306 -8.89385 42967 ft 461 kts 282°
2026-05-07 13:32 52.27810 -8.99567 42965 ft 466 kts 282°
2026-05-07 13:32 52.29330 -9.09866 42965 ft 466 kts 282°
2026-05-07 13:33 52.30838 -9.20172 42960 ft 463 kts 282°
2026-05-07 13:33 52.32313 -9.30315 42944 ft 460 kts 282°
2026-05-07 13:34 52.34510 -9.45552 42951 ft 459 kts 282°
2026-05-07 13:35 52.35968 -9.55743 42971 ft 460 kts 282°
2026-05-07 13:35 52.37420 -9.65963 42976 ft 461 kts 282°
2026-05-07 13:36 52.38868 -9.76226 42956 ft 462 kts 282°
2026-05-07 13:36 52.40303 -9.86463 42949 ft 462 kts 281°
2026-05-07 13:37 52.41723 -9.96664 42960 ft 462 kts 281°
2026-05-07 13:37 52.43138 -10.06901 42952 ft 460 kts 283°
2026-05-07 13:38 52.44537 -10.17083 42946 ft 460 kts 283°
2026-05-07 13:38 52.45930 -10.27302 42946 ft 459 kts 283°
2026-05-07 13:39 52.47315 -10.37531 42949 ft 459 kts 283°
2026-05-07 13:39 52.48693 -10.47778 42946 ft 459 kts 283°
2026-05-07 13:40 52.50060 -10.58012 42941 ft 459 kts 283°
2026-05-07 13:40 52.51187 -10.66510 42941 ft 459 kts 283°
2026-05-07 13:41 52.52538 -10.76763 42957 ft 459 kts 283°
2026-05-07 13:41 52.53877 -10.87001 42950 ft 458 kts 283°
2026-05-07 13:42 52.55208 -10.97241 42947 ft 458 kts 283°
2026-05-07 13:42 52.56528 -11.07480 42939 ft 458 kts 283°
2026-05-07 13:43 52.57839 -11.17720 42940 ft 458 kts 283°
2026-05-07 13:43 52.59141 -11.27961 42940 ft 458 kts 283°
2026-05-07 13:44 52.60428 -11.38163 42937 ft 457 kts 283°
2026-05-07 13:44 52.61711 -11.48413 42937 ft 457 kts 282°
2026-05-07 13:45 52.62988 -11.58689 42925 ft 457 kts 282°
2026-05-07 13:45 52.64252 -11.68940 42934 ft 457 kts 282°
2026-05-07 13:46 52.65508 -11.79198 42936 ft 457 kts 282°
2026-05-07 13:46 52.66755 -11.89463 42945 ft 457 kts 282°
2026-05-07 13:47 52.67989 -11.99696 42945 ft 457 kts 282°
2026-05-07 13:47 52.69219 -12.09978 42946 ft 457 kts 282°
2026-05-07 13:48 52.70440 -12.20273 42939 ft 457 kts 282°
2026-05-07 13:48 52.71652 -12.30568 42938 ft 457 kts 282°
2026-05-07 13:49 52.72849 -12.40807 42939 ft 457 kts 282°
2026-05-07 13:49 52.74043 -12.51110 42939 ft 457 kts 282°
2026-05-07 13:50 52.75229 -12.61429 42942 ft 457 kts 281°
2026-05-07 13:50 52.76404 -12.71740 42943 ft 457 kts 281°
2026-05-07 13:51 52.77572 -12.82063 42946 ft 457 kts 281°
2026-05-07 13:51 52.78729 -12.92375 42946 ft 457 kts 281°
2026-05-07 13:52 52.79882 -13.02742 42947 ft 457 kts 281°
2026-05-07 13:52 52.81021 -13.13069 42947 ft 458 kts 281°
2026-05-07 13:53 52.82148 -13.23373 42944 ft 458 kts 281°
2026-05-07 13:53 52.83276 -13.33766 42947 ft 458 kts 281°
2026-05-07 13:54 52.84392 -13.44146 42952 ft 458 kts 281°
2026-05-07 13:54 52.85498 -13.54516 42953 ft 458 kts 281°
2026-05-07 13:55 52.86598 -13.64930 42956 ft 459 kts 281°
2026-05-07 13:55 52.87682 -13.75276 42954 ft 459 kts 281°
2026-05-07 13:56 52.88765 -13.85705 42951 ft 459 kts 281°
2026-05-07 13:56 52.89839 -13.96136 42965 ft 460 kts 280°
2026-05-07 13:57 52.90903 -14.06571 42981 ft 460 kts 280°
2026-05-07 13:57 52.91960 -14.17031 42960 ft 459 kts 280°
2026-05-07 13:58 52.93004 -14.27465 42956 ft 457 kts 280°
2026-05-07 13:58 52.94034 -14.37838 42967 ft 455 kts 280°
2026-05-07 13:59 52.95049 -14.48166 42957 ft 454 kts 280°
2026-05-07 13:59 52.96052 -14.58466 42965 ft 455 kts 280°
2026-05-07 14:00 52.97057 -14.68883 42962 ft 457 kts 280°
2026-05-07 14:00 52.98054 -14.79315 42981 ft 459 kts 280°
2026-05-07 14:01 52.99044 -14.89781 42965 ft 460 kts 280°
2026-05-07 14:01 52.99986 -15.00269 42965 ft 459 kts 276°
2026-05-07 14:02 53.00211 -15.10835 42972 ft 457 kts 273°
2026-05-07 14:02 53.00436 -15.21306 42971 ft 455 kts 273°
2026-05-07 14:03 53.00622 -15.31799 42984 ft 455 kts 273°
2026-05-07 14:03 53.00817 -15.42327 43150 ft 458 kts 271°
2026-05-07 14:03 53.00906 -15.47618 43036 ft 459 kts 271°
2026-05-07 14:04 53.00992 -15.52908 43036 ft 457 kts 271°
2026-05-07 14:04 53.01163 -15.63349 43030 ft 452 kts 271°
2026-05-07 14:05 53.01320 -15.73762 43022 ft 451 kts 271°
2026-05-07 14:05 53.01471 -15.84216 43029 ft 454 kts 271°
2026-05-07 14:06 53.01612 -15.94731 43035 ft 457 kts 271°
2026-05-07 14:06 53.01746 -16.05374 43036 ft 459 kts 271°
2026-05-07 14:07 53.01869 -16.15879 43035 ft 457 kts 270°
2026-05-07 14:07 53.01983 -16.26420 43031 ft 455 kts 270°
2026-05-07 14:08 53.02087 -16.36903 43025 ft 453 kts 270°
2026-05-07 14:08 53.02181 -16.47364 43013 ft 452 kts 270°
2026-05-07 14:09 53.02266 -16.57755 43015 ft 454 kts 270°
2026-05-07 14:09 53.02343 -16.68246 43021 ft 455 kts 270°
2026-05-07 14:10 53.02411 -16.78799 43025 ft 457 kts 270°
2026-05-07 14:10 53.02469 -16.89393 43031 ft 459 kts 270°
2026-05-07 14:11 53.02518 -16.99996 43043 ft 457 kts 270°
2026-05-07 14:11 53.02557 -17.10471 43096 ft 455 kts 270°
2026-05-07 14:12 53.02588 -17.20905 43020 ft 448 kts 270°
2026-05-07 14:12 53.02608 -17.31274 43021 ft 450 kts 270°
2026-05-07 14:13 53.02620 -17.41745 43032 ft 457 kts 270°
2026-05-07 14:13 53.02623 -17.52353 43028 ft 460 kts 270°
2026-05-07 14:14 53.02616 -17.62949 43025 ft 457 kts 270°
2026-05-07 14:14 53.02600 -17.73450 43017 ft 454 kts 270°
2026-05-07 14:15 53.02575 -17.83910 43019 ft 451 kts 270°
2026-05-07 14:15 53.02541 -17.94281 43020 ft 453 kts 269°
2026-05-07 14:16 53.02497 -18.04788 43027 ft 456 kts 269°
2026-05-07 14:16 53.02444 -18.15343 43025 ft 458 kts 269°
2026-05-07 14:17 53.02381 -18.25944 43028 ft 458 kts 269°
2026-05-07 14:17 53.02309 -18.36501 43025 ft 456 kts 269°
2026-05-07 14:18 53.02228 -18.47016 43024 ft 454 kts 269°
2026-05-07 14:18 53.02139 -18.57434 43020 ft 452 kts 269°
2026-05-07 14:19 53.02041 -18.67876 43030 ft 452 kts 269°
2026-05-07 14:19 53.01932 -18.78348 43036 ft 455 kts 269°
2026-05-07 14:20 53.01814 -18.88881 43038 ft 457 kts 269°
2026-05-07 14:20 53.01686 -18.99470 43038 ft 458 kts 269°
2026-05-07 14:21 53.01549 -19.10027 43036 ft 457 kts 269°
2026-05-07 14:21 53.01403 -19.20571 43026 ft 455 kts 269°
2026-05-07 14:22 53.01248 -19.31030 43026 ft 453 kts 269°
2026-05-07 14:22 53.01085 -19.41496 43023 ft 452 kts 269°
2026-05-07 14:23 53.00912 -19.51948 43030 ft 454 kts 269°
2026-05-07 14:23 53.00731 -19.62380 43033 ft 456 kts 269°
2026-05-07 14:24 53.00539 -19.72915 43037 ft 457 kts 269°
2026-05-07 14:24 53.00336 -19.83473 43037 ft 459 kts 269°
2026-05-07 14:25 53.00124 -19.94089 43043 ft 458 kts 269°
2026-05-07 14:25 52.99747 -20.04622 43041 ft 456 kts 265°
2026-05-07 14:26 52.99139 -20.15082 43039 ft 454 kts 265°
2026-05-07 14:26 52.98543 -20.25500 43040 ft 453 kts 265°
2026-05-07 14:27 52.97926 -20.35916 43042 ft 455 kts 265°
2026-05-07 14:27 52.97306 -20.46338 43049 ft 457 kts 265°
2026-05-07 14:28 52.96668 -20.56858 43051 ft 459 kts 265°
2026-05-07 14:28 52.96125 -20.65693 43056 ft 460 kts 265°
2026-05-07 14:29 52.95363 -20.77918 43050 ft 457 kts 265°
2026-05-07 14:29 52.94808 -20.86694 43052 ft 455 kts 265°
2026-05-07 14:30 52.94144 -20.97054 43052 ft 453 kts 265°
2026-05-07 14:30 52.93470 -21.07443 43055 ft 453 kts 265°
2026-05-07 14:31 52.92784 -21.17858 43065 ft 456 kts 265°
2026-05-07 14:31 52.92086 -21.28314 43067 ft 458 kts 265°
2026-05-07 14:32 52.91374 -21.38844 43081 ft 460 kts 265°
2026-05-07 14:32 52.90652 -21.49372 43079 ft 459 kts 265°
2026-05-07 14:33 52.89929 -21.59780 43076 ft 457 kts 264°
2026-05-07 14:33 52.89195 -21.70215 43075 ft 455 kts 264°
2026-05-07 14:34 52.88454 -21.80616 43065 ft 453 kts 264°
2026-05-07 14:34 52.87707 -21.90972 43065 ft 454 kts 264°
2026-05-07 14:35 52.86946 -22.01392 43069 ft 456 kts 264°
2026-05-07 14:35 52.86172 -22.11855 43077 ft 459 kts 264°
2026-05-07 14:36 52.85387 -22.22350 43088 ft 460 kts 264°
2026-05-07 14:36 52.84592 -22.32835 43086 ft 458 kts 264°
2026-05-07 14:37 52.83792 -22.43270 43075 ft 457 kts 264°
2026-05-07 14:37 52.82583 -22.58804 43078 ft 454 kts 264°
2026-05-07 14:38 52.81769 -22.69133 43090 ft 455 kts 264°
2026-05-07 14:38 52.80936 -22.79563 43080 ft 458 kts 264°
2026-05-07 14:39 52.80091 -22.90032 43097 ft 461 kts 264°
2026-05-07 14:39 52.79233 -23.00540 43102 ft 462 kts 264°
2026-05-07 14:40 52.78373 -23.10961 43105 ft 459 kts 264°
2026-05-07 14:40 52.77509 -23.21314 43096 ft 457 kts 264°
2026-05-07 14:41 52.76626 -23.31772 43097 ft 455 kts 264°
2026-05-07 14:41 52.75746 -23.42097 43101 ft 457 kts 264°
2026-05-07 14:42 52.74842 -23.52583 43105 ft 459 kts 264°
2026-05-07 14:42 52.73937 -23.62977 43108 ft 461 kts 264°
2026-05-07 14:43 52.73012 -23.73482 43111 ft 462 kts 264°
2026-05-07 14:43 52.72082 -23.83943 43104 ft 460 kts 264°
2026-05-07 14:44 52.71146 -23.94355 43103 ft 458 kts 264°
2026-05-07 14:44 52.70204 -24.04733 43104 ft 456 kts 264°
2026-05-07 14:45 52.69262 -24.15017 43105 ft 456 kts 264°
2026-05-07 14:45 52.68304 -24.25365 43110 ft 458 kts 263°
2026-05-07 14:46 52.67333 -24.35746 43116 ft 459 kts 264°
2026-05-07 14:46 52.66350 -24.46160 43126 ft 461 kts 263°
2026-05-07 14:47 52.65351 -24.56642 43129 ft 462 kts 263°
2026-05-07 14:47 52.64343 -24.67105 43131 ft 461 kts 263°
2026-05-07 14:48 52.63334 -24.77491 43112 ft 459 kts 263°
2026-05-07 14:48 52.62324 -24.87786 43120 ft 457 kts 263°
2026-05-07 14:49 52.61301 -24.98123 43128 ft 459 kts 263°
2026-05-07 14:49 52.60265 -25.08489 43132 ft 460 kts 263°
2026-05-07 14:50 52.59214 -25.18905 43135 ft 462 kts 263°
2026-05-07 14:50 52.58149 -25.29368 43121 ft 464 kts 263°
2026-05-07 14:51 52.57079 -25.39787 43137 ft 463 kts 263°
2026-05-07 14:51 52.55997 -25.50230 43135 ft 462 kts 263°
2026-05-07 14:52 52.54911 -25.60611 43133 ft 461 kts 263°
2026-05-07 14:52 52.53819 -25.70961 43136 ft 459 kts 263°
2026-05-07 14:53 52.52719 -25.81301 43142 ft 458 kts 263°
2026-05-07 14:53 52.51620 -25.91543 43149 ft 460 kts 263°
2026-05-07 14:54 52.50497 -26.01913 43160 ft 462 kts 263°
2026-05-07 14:54 52.49357 -26.12358 43159 ft 465 kts 263°
2026-05-07 14:55 52.48207 -26.22790 43167 ft 464 kts 263°
2026-05-07 14:55 52.47054 -26.33171 43150 ft 462 kts 263°
2026-05-07 14:56 52.45897 -26.43511 43148 ft 460 kts 263°
2026-05-07 14:56 52.44741 -26.53744 43151 ft 458 kts 262°
2026-05-07 14:57 52.43572 -26.64016 43157 ft 459 kts 262°
2026-05-07 14:57 52.42386 -26.74341 43159 ft 462 kts 262°
2026-05-07 14:58 52.41188 -26.84698 43164 ft 463 kts 262°
2026-05-07 14:58 52.39979 -26.95066 43182 ft 464 kts 262°
2026-05-07 14:59 52.38760 -27.05427 43173 ft 462 kts 262°
2026-05-07 14:59 52.37542 -27.15700 43167 ft 460 kts 262°
2026-05-07 15:00 52.36317 -27.25959 43174 ft 458 kts 262°
2026-05-07 15:00 52.35085 -27.36188 43170 ft 458 kts 262°
2026-05-07 15:01 52.33840 -27.46454 43179 ft 461 kts 262°
2026-05-07 15:01 52.32580 -27.56762 43187 ft 463 kts 262°
2026-05-07 15:02 52.31308 -27.67086 43191 ft 464 kts 262°
2026-05-07 15:02 52.30024 -27.77418 43163 ft 462 kts 262°
2026-05-07 15:03 52.28742 -27.87672 43180 ft 460 kts 262°
2026-05-07 15:03 52.27464 -27.97815 43187 ft 458 kts 262°
2026-05-07 15:04 52.26173 -28.07986 43185 ft 459 kts 262°
2026-05-07 15:04 52.24864 -28.18220 43195 ft 461 kts 262°
2026-05-07 15:05 52.23543 -28.28473 43198 ft 462 kts 262°
2026-05-07 15:05 52.22209 -28.38753 43202 ft 464 kts 262°
2026-05-07 15:06 52.20860 -28.49067 43203 ft 463 kts 262°
2026-05-07 15:06 52.19514 -28.59293 43207 ft 461 kts 262°
2026-05-07 15:07 52.18167 -28.69452 43204 ft 459 kts 262°
2026-05-07 15:07 52.16812 -28.79598 43210 ft 457 kts 262°
2026-05-07 15:08 52.15448 -28.89740 43209 ft 459 kts 262°
2026-05-07 15:08 52.14068 -28.99932 43220 ft 461 kts 262°
2026-05-07 15:09 52.12683 -29.10087 43222 ft 463 kts 261°
2026-05-07 15:09 52.11279 -29.20307 43226 ft 463 kts 261°
2026-05-07 15:10 52.09867 -29.30517 43215 ft 460 kts 261°
2026-05-07 15:10 52.08460 -29.40624 43209 ft 458 kts 261°
2026-05-07 15:11 52.07045 -29.50715 43213 ft 456 kts 261°
2026-05-07 15:11 52.05635 -29.60719 43216 ft 458 kts 261°
2026-05-07 15:12 52.04199 -29.70822 43220 ft 460 kts 261°
2026-05-07 15:12 52.02755 -29.80915 43239 ft 457 kts 261°
2026-05-07 15:13 52.01312 -29.90942 43228 ft 455 kts 261°
2026-05-07 15:13 51.99894 -30.00969 43224 ft 456 kts 264°
2026-05-07 15:14 51.98851 -30.11143 43239 ft 458 kts 264°
2026-05-07 15:14 51.97948 -30.19636 43246 ft 461 kts 264°
2026-05-07 15:15 51.96874 -30.29855 43230 ft 460 kts 264°
2026-05-07 15:15 51.95782 -30.40069 43231 ft 458 kts 264°
2026-05-07 15:16 51.94511 -30.51889 43233 ft 457 kts 264°
2026-05-07 15:16 51.93590 -30.60379 43232 ft 456 kts 264°
2026-05-07 15:17 51.92487 -30.70464 43241 ft 454 kts 264°
2026-05-07 15:17 51.91385 -30.80472 43242 ft 456 kts 264°
2026-05-07 15:18 51.90258 -30.90610 43244 ft 460 kts 264°
2026-05-07 15:18 51.89109 -31.00860 43248 ft 462 kts 263°
2026-05-07 15:19 51.87954 -31.11070 43257 ft 460 kts 263°
2026-05-07 15:19 51.86799 -31.21217 43253 ft 457 kts 263°
2026-05-07 15:20 51.85640 -31.31311 43249 ft 455 kts 263°
2026-05-07 15:20 51.84477 -31.41363 43247 ft 456 kts 263°
2026-05-07 15:21 51.83300 -31.51455 43254 ft 458 kts 263°
2026-05-07 15:21 51.82107 -31.61593 43257 ft 460 kts 263°
2026-05-07 15:22 51.80911 -31.71686 43230 ft 462 kts 263°
2026-05-07 15:22 51.79692 -31.81897 43242 ft 461 kts 263°
2026-05-07 15:23 51.78471 -31.92042 43251 ft 460 kts 263°
2026-05-07 15:23 51.77242 -32.02174 43248 ft 459 kts 263°
2026-05-07 15:24 51.76009 -32.12262 43250 ft 458 kts 263°
2026-05-07 15:24 51.74766 -32.22357 43258 ft 456 kts 263°
2026-05-07 15:25 51.73528 -32.32342 43259 ft 459 kts 263°
2026-05-07 15:25 51.72263 -32.42465 43265 ft 461 kts 263°
2026-05-07 15:26 51.70981 -32.52645 43267 ft 464 kts 262°
2026-05-07 15:26 51.69688 -32.62832 43268 ft 463 kts 262°
2026-05-07 15:27 51.68392 -32.72976 43261 ft 460 kts 262°
2026-05-07 15:27 51.67105 -32.82983 43254 ft 458 kts 262°
2026-05-07 15:28 51.65802 -32.93039 43256 ft 459 kts 262°
2026-05-07 15:28 51.64487 -33.03113 43259 ft 461 kts 262°
2026-05-07 15:29 51.63158 -33.13218 43268 ft 463 kts 262°
2026-05-07 15:29 51.61815 -33.23359 43270 ft 463 kts 262°
2026-05-07 15:30 51.60459 -33.33516 43269 ft 463 kts 262°
2026-05-07 15:30 51.59101 -33.43632 43267 ft 462 kts 262°
2026-05-07 15:31 51.57734 -33.53738 43276 ft 462 kts 262°
2026-05-07 15:31 51.56363 -33.63800 43275 ft 459 kts 262°
2026-05-07 15:32 51.54998 -33.73757 43274 ft 456 kts 262°
2026-05-07 15:32 51.53636 -33.83634 43274 ft 460 kts 262°
2026-05-07 15:33 51.52227 -33.93769 43280 ft 464 kts 262°
2026-05-07 15:33 51.50814 -34.03862 43281 ft 463 kts 262°
2026-05-07 15:34 51.49397 -34.13918 43284 ft 460 kts 262°
2026-05-07 15:34 51.47983 -34.23886 43279 ft 457 kts 262°
2026-05-07 15:35 51.46564 -34.33839 43278 ft 458 kts 262°
2026-05-07 15:35 51.45133 -34.43796 43285 ft 459 kts 261°
2026-05-07 15:36 51.43686 -34.53800 43285 ft 460 kts 261°
2026-05-07 15:36 51.42233 -34.63783 43261 ft 462 kts 261°
2026-05-07 15:37 51.40774 -34.73736 43288 ft 462 kts 261°
2026-05-07 15:37 51.39294 -34.83774 43288 ft 462 kts 261°
2026-05-07 15:38 51.37813 -34.93754 43288 ft 462 kts 261°
2026-05-07 15:38 51.36317 -35.03771 43291 ft 461 kts 261°
2026-05-07 15:39 51.34818 -35.13748 43283 ft 461 kts 261°
2026-05-07 15:39 51.33313 -35.23698 43289 ft 460 kts 261°
2026-05-07 15:40 51.31809 -35.33578 43304 ft 460 kts 261°
2026-05-07 15:40 51.30290 -35.43500 43299 ft 459 kts 261°
2026-05-07 15:41 51.28766 -35.53391 43298 ft 459 kts 261°
2026-05-07 15:41 51.27229 -35.63315 43411 ft 463 kts 258°
2026-05-07 15:42 51.26449 -35.68327 43302 ft 467 kts 258°
2026-05-07 15:42 51.25662 -35.73351 43304 ft 467 kts 258°
2026-05-07 15:42 51.24085 -35.83404 43308 ft 467 kts 258°
2026-05-07 15:43 51.22508 -35.93388 43310 ft 466 kts 258°
2026-05-07 15:43 51.20918 -36.03401 43311 ft 465 kts 258°
2026-05-07 15:44 51.19319 -36.13400 43310 ft 464 kts 258°
2026-05-07 15:44 51.17720 -36.23346 43308 ft 464 kts 258°
2026-05-07 15:45 51.16111 -36.33293 43305 ft 463 kts 258°
2026-05-07 15:45 51.14492 -36.43241 43300 ft 462 kts 258°
2026-05-07 15:46 51.12062 -36.58074 43296 ft 462 kts 258°
2026-05-07 15:47 51.10424 -36.67991 43303 ft 464 kts 258°
2026-05-07 15:47 51.08773 -36.77934 43305 ft 466 kts 258°
2026-05-07 15:48 51.07102 -36.87935 43304 ft 469 kts 257°
2026-05-07 15:48 51.05430 -36.97889 43316 ft 468 kts 257°
2026-05-07 15:49 51.03745 -37.07857 43304 ft 466 kts 257°
2026-05-07 15:49 51.02059 -37.17779 43304 ft 464 kts 257°
2026-05-07 15:50 51.00371 -37.27654 43298 ft 461 kts 257°
2026-05-07 15:50 50.98685 -37.37466 43297 ft 462 kts 257°
2026-05-07 15:51 50.96987 -37.47290 43303 ft 465 kts 257°
2026-05-07 15:51 50.95267 -37.57184 43312 ft 466 kts 257°
2026-05-07 15:52 50.93530 -37.67119 43318 ft 467 kts 257°
2026-05-07 15:52 50.91789 -37.77020 43308 ft 466 kts 257°
2026-05-07 15:53 50.90043 -37.86899 43304 ft 464 kts 257°
2026-05-07 15:53 50.88300 -37.96704 43351 ft 461 kts 257°
2026-05-07 15:54 50.86559 -38.06449 43298 ft 458 kts 257°
2026-05-07 15:54 50.84824 -38.16110 43300 ft 461 kts 257°
2026-05-07 15:55 50.83053 -38.25909 43304 ft 465 kts 257°
2026-05-07 15:55 50.81261 -38.35780 43310 ft 467 kts 257°
2026-05-07 15:56 50.79465 -38.45612 43296 ft 464 kts 257°
2026-05-07 15:56 50.77675 -38.55366 43297 ft 460 kts 257°
2026-05-07 15:57 50.75901 -38.64976 43295 ft 458 kts 257°
2026-05-07 15:57 50.74103 -38.74673 43300 ft 460 kts 256°
2026-05-07 15:58 50.72288 -38.84406 43305 ft 463 kts 256°
2026-05-07 15:58 50.70457 -38.94170 43306 ft 463 kts 256°
2026-05-07 15:59 50.68627 -39.03881 43304 ft 460 kts 256°
2026-05-07 15:59 50.66802 -39.13516 43299 ft 458 kts 256°
2026-05-07 16:00 50.64990 -39.23038 43295 ft 456 kts 256°
2026-05-07 16:00 50.63155 -39.32630 43310 ft 458 kts 256°
2026-05-07 16:01 50.61304 -39.42250 43311 ft 461 kts 256°
2026-05-07 16:01 50.59431 -39.51943 43307 ft 461 kts 256°
2026-05-07 16:02 50.57558 -39.61581 43308 ft 459 kts 256°
2026-05-07 16:02 50.55698 -39.71107 43300 ft 458 kts 256°
2026-05-07 16:03 50.53823 -39.80661 43299 ft 455 kts 256°
2026-05-07 16:03 50.51948 -39.90172 43298 ft 456 kts 256°
2026-05-07 16:04 50.50099 -39.99693 43289 ft 456 kts 259°
2026-05-07 16:04 50.49029 -40.09479 43309 ft 455 kts 263°
2026-05-07 16:05 50.48157 -40.17675 43307 ft 457 kts 263°
2026-05-07 16:05 50.47128 -40.27528 42924 ft 458 kts 263°
2026-05-07 16:05 50.46609 -40.32407 43066 ft 451 kts 263°
2026-05-07 16:06 50.46090 -40.37251 43176 ft 447 kts 263°
2026-05-07 16:06 50.45063 -40.46889 43176 ft 450 kts 263°
2026-05-07 16:07 50.44014 -40.56599 43181 ft 452 kts 263°
2026-05-07 16:07 50.42953 -40.66359 43185 ft 454 kts 263°
2026-05-07 16:08 50.41882 -40.76116 43186 ft 453 kts 263°
2026-05-07 16:08 50.40812 -40.85798 43183 ft 450 kts 263°
2026-05-07 16:09 50.39745 -40.95376 43177 ft 447 kts 263°
2026-05-07 16:09 50.38665 -41.04991 43184 ft 448 kts 263°
2026-05-07 16:10 50.37573 -41.14640 43191 ft 450 kts 263°
2026-05-07 16:10 50.36468 -41.24333 43195 ft 453 kts 263°
2026-05-07 16:11 50.35350 -41.34057 43192 ft 454 kts 262°
2026-05-07 16:11 50.34226 -41.43757 43195 ft 453 kts 262°
2026-05-07 16:12 50.33093 -41.53467 43195 ft 452 kts 262°
2026-05-07 16:12 50.31959 -41.63114 43196 ft 450 kts 262°
2026-05-07 16:13 50.30825 -41.72684 43194 ft 449 kts 262°
2026-05-07 16:13 50.29675 -41.82321 43202 ft 448 kts 262°
2026-05-07 16:14 50.28528 -41.91858 43201 ft 450 kts 262°
2026-05-07 16:14 50.27359 -42.01512 43214 ft 453 kts 262°
2026-05-07 16:15 50.26174 -42.11221 43217 ft 455 kts 262°
2026-05-07 16:15 50.24989 -42.20859 43219 ft 453 kts 261°
2026-05-07 16:16 50.23788 -42.30563 43194 ft 451 kts 261°
2026-05-07 16:16 50.22597 -42.40111 43207 ft 449 kts 261°
2026-05-07 16:17 50.21400 -42.49647 43207 ft 449 kts 261°
2026-05-07 16:17 50.20187 -42.59244 43205 ft 451 kts 261°
2026-05-07 16:18 50.18959 -42.68885 43222 ft 453 kts 261°
2026-05-07 16:18 50.17720 -42.78547 43214 ft 455 kts 261°
2026-05-07 16:19 50.16473 -42.88205 43207 ft 453 kts 260°
2026-05-07 16:19 50.15221 -42.97831 43215 ft 452 kts 260°
2026-05-07 16:20 50.13967 -43.07413 43207 ft 450 kts 260°
2026-05-07 16:20 50.12717 -43.16895 43219 ft 449 kts 260°
2026-05-07 16:21 50.11452 -43.26434 43204 ft 450 kts 260°
2026-05-07 16:21 50.10175 -43.35992 43209 ft 452 kts 260°
2026-05-07 16:22 50.08883 -43.45595 43216 ft 454 kts 260°
2026-05-07 16:22 50.07579 -43.55228 43219 ft 454 kts 259°
2026-05-07 16:23 50.06271 -43.64828 43224 ft 452 kts 259°
2026-05-07 16:23 50.04962 -43.74366 43214 ft 450 kts 259°
2026-05-07 16:24 50.03657 -43.83820 43214 ft 448 kts 259°
2026-05-07 16:24 50.02336 -43.93327 43217 ft 447 kts 259°
2026-05-07 16:25 50.01017 -44.02763 43213 ft 449 kts 259°
2026-05-07 16:25 49.99680 -44.12265 43223 ft 451 kts 259°
2026-05-07 16:26 49.98328 -44.21804 43227 ft 453 kts 259°
2026-05-07 16:26 49.96966 -44.31362 43217 ft 453 kts 259°
2026-05-07 16:27 49.95598 -44.40894 43219 ft 450 kts 259°
2026-05-07 16:27 49.94234 -44.50351 43283 ft 447 kts 258°
2026-05-07 16:28 49.92868 -44.59751 43282 ft 445 kts 258°
2026-05-07 16:28 49.91502 -44.69107 43282 ft 446 kts 258°
2026-05-07 16:29 49.90125 -44.78471 43288 ft 448 kts 258°
2026-05-07 16:29 49.88721 -44.87965 43289 ft 450 kts 258°
2026-05-07 16:30 49.87318 -44.97393 43297 ft 451 kts 258°
2026-05-07 16:30 49.85902 -45.06848 43291 ft 449 kts 258°
2026-05-07 16:31 49.84486 -45.16257 43293 ft 447 kts 258°
2026-05-07 16:31 49.83063 -45.25650 43285 ft 446 kts 258°
2026-05-07 16:32 49.81643 -45.34963 43289 ft 444 kts 257°
2026-05-07 16:32 49.80217 -45.44269 43289 ft 445 kts 257°
2026-05-07 16:33 49.78781 -45.53581 43293 ft 445 kts 257°
2026-05-07 16:33 49.77344 -45.62848 43294 ft 445 kts 257°
2026-05-07 16:34 49.75894 -45.72146 43294 ft 446 kts 257°
2026-05-07 16:34 49.74429 -45.81489 43298 ft 446 kts 257°
2026-05-07 16:35 49.72960 -45.90798 43298 ft 446 kts 257°
2026-05-07 16:35 49.71480 -46.00127 43300 ft 447 kts 257°
2026-05-07 16:36 49.69991 -46.09460 43301 ft 447 kts 257°
2026-05-07 16:36 49.68497 -46.18772 43297 ft 447 kts 257°
2026-05-07 16:37 49.67002 -46.28038 43288 ft 447 kts 256°
2026-05-07 16:37 49.65490 -46.37355 43287 ft 447 kts 256°
2026-05-07 16:38 49.63972 -46.46661 43290 ft 447 kts 256°
2026-05-07 16:38 49.62445 -46.55970 43292 ft 447 kts 256°
2026-05-07 16:39 49.60910 -46.65277 43291 ft 447 kts 256°
2026-05-07 16:39 49.59367 -46.74578 43287 ft 447 kts 256°
2026-05-07 16:40 49.57820 -46.83856 43279 ft 447 kts 256°
2026-05-07 16:40 49.56269 -46.93102 43277 ft 447 kts 256°
2026-05-07 16:41 49.54706 -47.02377 43276 ft 447 kts 255°
2026-05-07 16:41 49.53135 -47.11646 43280 ft 447 kts 255°
2026-05-07 16:42 49.51559 -47.20893 43285 ft 447 kts 255°
2026-05-07 16:42 49.49976 -47.30133 43275 ft 444 kts 255°
2026-05-07 16:43 49.48408 -47.39241 43268 ft 441 kts 255°
2026-05-07 16:43 49.46834 -47.48335 43270 ft 439 kts 255°
2026-05-07 16:44 49.45248 -47.57448 43272 ft 442 kts 255°
2026-05-07 16:44 49.43658 -47.66542 43275 ft 444 kts 255°
2026-05-07 16:45 49.42041 -47.75735 43271 ft 446 kts 255°
2026-05-07 16:45 49.40420 -47.84910 43269 ft 443 kts 255°
2026-05-07 16:46 49.38801 -47.94026 43265 ft 441 kts 254°
2026-05-07 16:46 49.37186 -48.03075 43269 ft 439 kts 254°
2026-05-07 16:47 49.35562 -48.12125 43281 ft 440 kts 254°
2026-05-07 16:47 49.33939 -48.21131 43274 ft 442 kts 254°
2026-05-07 16:48 49.32291 -48.30219 43278 ft 443 kts 254°
2026-05-07 16:48 49.30636 -48.39310 43278 ft 442 kts 254°
2026-05-07 16:49 49.28981 -48.48349 43272 ft 440 kts 253°
2026-05-07 16:49 49.27329 -48.57338 43272 ft 438 kts 253°
2026-05-07 16:50 49.25672 -48.66304 43257 ft 436 kts 253°
2026-05-07 16:50 49.24291 -48.73739 43263 ft 437 kts 253°
2026-05-07 16:51 49.22621 -48.82694 43263 ft 438 kts 253°
2026-05-07 16:51 49.20665 -48.93137 43265 ft 440 kts 253°
2026-05-07 16:52 49.19259 -49.00619 43265 ft 441 kts 253°
2026-05-07 16:52 49.17554 -49.09587 43265 ft 438 kts 253°
2026-05-07 16:53 49.16544 -49.18713 43265 ft 437 kts 264°
2026-05-07 16:53 49.16115 -49.27954 43264 ft 435 kts 264°
2026-05-07 16:54 49.15664 -49.37193 43266 ft 437 kts 264°
2026-05-07 16:54 49.15212 -49.46490 43264 ft 439 kts 264°
2026-05-07 16:55 49.14748 -49.55759 43267 ft 441 kts 264°
2026-05-07 16:55 49.14279 -49.65093 43277 ft 441 kts 264°
2026-05-07 16:56 49.13794 -49.74423 43244 ft 438 kts 263°
2026-05-07 16:56 49.13074 -49.88218 43247 ft 433 kts 263°
2026-05-07 16:57 49.12581 -49.97412 43240 ft 436 kts 263°
2026-05-07 16:57 49.12080 -50.06677 43246 ft 439 kts 263°
2026-05-07 16:58 49.11568 -50.15971 43244 ft 440 kts 263°
2026-05-07 16:58 49.11048 -50.25278 43239 ft 438 kts 263°
2026-05-07 16:59 49.10523 -50.34531 43237 ft 437 kts 263°
2026-05-07 16:59 49.09994 -50.43732 43217 ft 435 kts 262°
2026-05-07 17:00 49.09461 -50.52871 43219 ft 435 kts 262°
2026-05-07 17:00 49.08917 -50.62078 43223 ft 437 kts 262°
2026-05-07 17:01 49.08364 -50.71311 43218 ft 439 kts 262°
2026-05-07 17:01 49.07799 -50.80598 43222 ft 440 kts 262°
2026-05-07 17:02 49.07228 -50.89893 43224 ft 439 kts 262°
2026-05-07 17:02 49.06650 -50.99159 43214 ft 438 kts 262°
2026-05-07 17:03 49.06068 -51.08374 43206 ft 436 kts 262°
2026-05-07 17:03 49.05479 -51.17572 43196 ft 434 kts 262°
2026-05-07 17:04 49.04887 -51.26707 43197 ft 435 kts 262°
2026-05-07 17:04 49.04287 -51.35847 43191 ft 437 kts 262°
2026-05-07 17:05 49.03674 -51.45083 43197 ft 438 kts 262°
2026-05-07 17:05 49.03052 -51.54332 43198 ft 440 kts 262°
2026-05-07 17:06 49.02422 -51.63593 43184 ft 439 kts 262°
2026-05-07 17:06 49.01787 -51.72815 43176 ft 436 kts 261°
2026-05-07 17:07 49.01148 -51.81991 43163 ft 434 kts 261°
2026-05-07 17:07 49.00503 -51.91130 43172 ft 434 kts 261°
2026-05-07 17:08 48.99852 -52.00270 43166 ft 436 kts 261°
2026-05-07 17:08 48.99192 -52.09420 43171 ft 437 kts 261°
2026-05-07 17:09 48.98520 -52.18635 43164 ft 440 kts 261°
2026-05-07 17:09 48.97839 -52.27878 43146 ft 439 kts 261°
2026-05-07 17:10 48.97152 -52.37091 43153 ft 437 kts 261°
2026-05-07 17:10 48.96461 -52.46258 43140 ft 435 kts 261°
2026-05-07 17:11 48.95766 -52.55390 43137 ft 433 kts 261°
2026-05-07 17:11 48.95068 -52.64452 43131 ft 435 kts 261°
2026-05-07 17:12 48.94356 -52.73603 43129 ft 437 kts 261°
2026-05-07 17:12 48.93633 -52.82806 43126 ft 439 kts 261°
2026-05-07 17:13 48.92899 -52.92035 43130 ft 439 kts 261°
2026-05-07 17:13 48.92162 -53.01229 43107 ft 437 kts 261°
2026-05-07 17:14 48.91417 -53.10419 43105 ft 436 kts 261°
2026-05-07 17:14 48.90674 -53.19490 43091 ft 434 kts 260°
2026-05-07 17:15 48.89922 -53.28577 43087 ft 433 kts 260°
2026-05-07 17:15 48.89161 -53.37695 43092 ft 435 kts 261°
2026-05-07 17:16 48.88392 -53.46815 43085 ft 438 kts 260°
2026-05-07 17:16 48.87609 -53.56015 43095 ft 439 kts 260°
2026-05-07 17:17 48.86819 -53.65215 43094 ft 437 kts 260°
2026-05-07 17:17 48.86030 -53.74293 43077 ft 435 kts 260°
2026-05-07 17:18 48.85233 -53.83396 43075 ft 433 kts 260°
2026-05-07 17:18 48.84433 -53.92449 43074 ft 432 kts 260°
2026-05-07 17:19 48.83624 -54.01515 43069 ft 433 kts 260°
2026-05-07 17:19 48.82807 -54.10583 43072 ft 435 kts 260°
2026-05-07 17:20 48.81981 -54.19687 43074 ft 435 kts 260°
2026-05-07 17:20 48.81149 -54.28761 43072 ft 434 kts 259°
2026-05-07 17:21 48.80315 -54.37787 43036 ft 433 kts 259°
2026-05-07 17:21 48.79472 -54.46812 43034 ft 433 kts 259°
2026-05-07 17:22 48.78618 -54.55890 43027 ft 434 kts 259°
2026-05-07 17:22 48.78189 -54.60411 43143 ft 433 kts 260°
2026-05-07 17:22 48.77763 -54.64917 43080 ft 426 kts 259°
2026-05-07 17:23 48.76919 -54.73722 43065 ft 422 kts 259°
2026-05-07 17:23 48.76062 -54.82594 43063 ft 428 kts 259°
2026-05-07 17:24 48.75188 -54.91576 43051 ft 434 kts 259°
2026-05-07 17:24 48.74302 -55.00608 43026 ft 432 kts 259°
2026-05-07 17:25 48.73414 -55.09580 43019 ft 428 kts 259°
2026-05-07 17:25 48.72534 -55.18404 43001 ft 425 kts 259°
2026-05-07 17:26 48.71648 -55.27215 42996 ft 422 kts 259°
2026-05-07 17:26 48.70755 -55.36021 43011 ft 424 kts 258°
2026-05-07 17:27 48.69851 -55.44880 42999 ft 426 kts 258°
2026-05-07 17:27 48.68939 -55.53736 42998 ft 427 kts 258°
2026-05-07 17:28 48.68016 -55.62638 42991 ft 426 kts 258°
2026-05-07 17:28 48.67092 -55.71466 42982 ft 424 kts 258°
2026-05-07 17:29 48.66171 -55.80209 42972 ft 422 kts 258°
2026-05-07 17:29 48.65243 -55.88954 42964 ft 420 kts 258°
2026-05-07 17:30 48.64309 -55.97684 42965 ft 422 kts 258°
2026-05-07 17:30 48.63362 -56.06469 42971 ft 424 kts 258°
2026-05-07 17:31 48.62403 -56.15303 42958 ft 427 kts 258°
2026-05-07 17:31 48.61436 -56.24147 42956 ft 426 kts 258°
2026-05-07 17:32 48.60466 -56.32954 42927 ft 424 kts 258°
2026-05-07 17:32 48.59657 -56.40253 42934 ft 422 kts 258°
2026-05-07 17:33 48.58515 -56.50468 42937 ft 423 kts 258°
2026-05-07 17:33 48.57530 -56.59219 42946 ft 427 kts 257°
2026-05-07 17:34 48.56527 -56.68071 42945 ft 429 kts 257°
2026-05-07 17:34 48.55510 -56.76972 42944 ft 430 kts 257°
2026-05-07 17:35 48.54490 -56.85846 42939 ft 427 kts 257°
2026-05-07 17:35 48.53468 -56.94669 42936 ft 425 kts 257°
2026-05-07 17:36 48.52444 -57.03446 42942 ft 424 kts 257°
2026-05-07 17:36 48.51417 -57.12190 42942 ft 424 kts 257°
2026-05-07 17:37 48.50383 -57.20933 42942 ft 427 kts 257°
2026-05-07 17:37 48.49332 -57.29764 42950 ft 429 kts 257°
2026-05-07 17:38 48.48270 -57.38627 42935 ft 429 kts 257°
2026-05-07 17:38 48.47203 -57.47472 42920 ft 429 kts 257°
2026-05-07 17:39 48.46312 -57.54805 42919 ft 427 kts 257°
2026-05-07 17:39 48.45060 -57.65044 42895 ft 426 kts 257°
2026-05-07 17:40 48.44163 -57.72337 42894 ft 425 kts 257°
2026-05-07 17:40 48.43082 -57.81070 42898 ft 424 kts 257°
2026-05-07 17:41 48.41994 -57.89790 42874 ft 424 kts 257°
2026-05-07 17:41 48.40894 -57.98564 42875 ft 427 kts 257°
2026-05-07 17:42 48.39782 -58.07372 42869 ft 428 kts 257°
2026-05-07 17:42 48.38662 -58.16186 42871 ft 430 kts 257°
2026-05-07 17:43 48.37543 -58.24945 42866 ft 428 kts 257°
2026-05-07 17:43 48.36413 -58.33728 42770 ft 426 kts 257°
2026-05-07 17:44 48.35286 -58.42421 42843 ft 422 kts 258°
2026-05-07 17:44 48.34164 -58.51038 42844 ft 415 kts 258°
2026-05-07 17:45 48.33055 -58.59495 42811 ft 413 kts 258°
2026-05-07 17:45 48.31928 -58.68039 42802 ft 420 kts 258°
2026-05-07 17:46 48.30778 -58.76700 42810 ft 426 kts 258°
2026-05-07 17:46 48.29610 -58.85450 42796 ft 426 kts 258°
2026-05-07 17:47 48.28443 -58.94139 42819 ft 423 kts 258°
2026-05-07 17:47 48.27283 -59.02719 42786 ft 420 kts 257°
2026-05-07 17:48 48.26116 -59.11306 42759 ft 419 kts 257°
2026-05-07 17:48 48.24942 -59.19889 42762 ft 421 kts 257°
2026-05-07 17:49 48.23759 -59.28489 42766 ft 423 kts 257°
2026-05-07 17:49 48.22559 -59.37156 42754 ft 425 kts 257°
2026-05-07 17:50 48.21348 -59.45860 42754 ft 426 kts 257°
2026-05-07 17:50 48.20132 -59.54546 42752 ft 424 kts 257°
2026-05-07 17:51 48.18924 -59.63122 42738 ft 423 kts 257°
2026-05-07 17:51 48.17705 -59.71732 42730 ft 422 kts 257°
2026-05-07 17:52 48.16476 -59.80347 42729 ft 424 kts 257°
2026-05-07 17:52 48.15231 -59.89043 42733 ft 428 kts 256°
2026-05-07 17:53 48.13970 -59.97791 42739 ft 431 kts 256°
2026-05-07 17:53 48.12703 -60.06534 42722 ft 428 kts 256°
2026-05-07 17:54 48.11436 -60.15228 42715 ft 427 kts 256°
2026-05-07 17:54 48.10169 -60.23871 42713 ft 424 kts 256°
2026-05-07 17:55 48.08896 -60.32500 42704 ft 426 kts 256°
2026-05-07 17:55 48.07611 -60.41169 42700 ft 428 kts 256°
2026-05-07 17:56 48.06316 -60.49860 42692 ft 431 kts 256°
2026-05-07 17:56 48.05004 -60.58613 42698 ft 431 kts 256°
2026-05-07 17:57 48.03912 -60.65864 42689 ft 429 kts 256°
2026-05-07 17:57 48.02383 -60.75950 42688 ft 428 kts 256°
2026-05-07 17:58 48.01065 -60.84604 42686 ft 427 kts 256°
2026-05-07 17:58 47.99738 -60.93261 42672 ft 427 kts 256°
2026-05-07 17:59 47.98402 -61.01937 42672 ft 430 kts 256°
2026-05-07 17:59 47.97049 -61.10670 42675 ft 433 kts 256°
2026-05-07 18:00 47.95684 -61.19437 42671 ft 433 kts 256°
2026-05-07 18:00 47.94315 -61.28182 42660 ft 431 kts 256°
2026-05-07 18:01 47.92952 -61.36843 42677 ft 428 kts 256°
2026-05-07 18:01 47.91584 -61.45481 42665 ft 429 kts 256°
2026-05-07 18:02 47.89518 -61.58451 42666 ft 432 kts 256°
2026-05-07 18:03 47.88113 -61.67220 42674 ft 434 kts 256°
2026-05-07 18:03 47.86708 -61.75930 42668 ft 433 kts 256°
2026-05-07 18:04 47.85299 -61.84627 42670 ft 431 kts 256°
2026-05-07 18:04 47.83887 -61.93296 42662 ft 430 kts 256°
2026-05-07 18:05 47.82475 -62.01925 42662 ft 428 kts 255°
2026-05-07 18:05 47.81059 -62.10532 42656 ft 427 kts 255°
2026-05-07 18:06 47.79645 -62.19079 42651 ft 426 kts 255°
2026-05-07 18:06 47.78228 -62.27606 42654 ft 428 kts 255°
2026-05-07 18:07 47.76791 -62.36207 42656 ft 430 kts 255°
2026-05-07 18:07 47.75341 -62.44843 42663 ft 431 kts 255°
2026-05-07 18:08 47.73882 -62.53490 42659 ft 429 kts 255°
2026-05-07 18:08 47.72438 -62.62006 42650 ft 422 kts 255°
2026-05-07 18:09 47.71004 -62.70422 42645 ft 423 kts 255°
2026-05-07 18:09 47.69542 -62.78958 42654 ft 426 kts 255°
2026-05-07 18:10 47.68075 -62.87483 42656 ft 430 kts 255°
2026-05-07 18:10 47.66589 -62.96079 42652 ft 428 kts 255°
2026-05-07 18:11 47.65111 -63.04582 42668 ft 425 kts 255°
2026-05-07 18:11 47.63635 -63.13041 42645 ft 422 kts 255°
2026-05-07 18:12 47.62163 -63.21431 42641 ft 418 kts 255°
2026-05-07 18:12 47.60689 -63.29791 42643 ft 420 kts 255°
2026-05-07 18:13 47.59204 -63.38172 42650 ft 423 kts 255°
2026-05-07 18:13 47.57709 -63.46580 42661 ft 425 kts 255°
2026-05-07 18:14 47.56197 -63.55045 42654 ft 425 kts 255°
2026-05-07 18:14 47.54683 -63.63471 42650 ft 422 kts 255°
2026-05-07 18:15 47.53172 -63.71848 42639 ft 420 kts 255°
2026-05-07 18:15 47.51659 -63.80192 42640 ft 418 kts 254°
2026-05-07 18:16 47.50144 -63.88516 42640 ft 419 kts 254°
2026-05-07 18:16 47.48618 -63.96858 42651 ft 422 kts 254°
2026-05-07 18:17 47.47076 -64.05252 42657 ft 423 kts 254°
2026-05-07 18:17 47.45524 -64.13660 42653 ft 424 kts 254°
2026-05-07 18:17 47.44754 -64.17821 43040 ft 425 kts 252°
2026-05-07 18:18 47.43973 -64.22033 42900 ft 426 kts 252°
2026-05-07 18:18 47.42412 -64.30407 42833 ft 419 kts 251°
2026-05-07 18:19 47.40867 -64.38664 42828 ft 417 kts 251°
2026-05-07 18:19 47.39307 -64.46964 42825 ft 420 kts 251°
2026-05-07 18:20 47.37733 -64.55302 42831 ft 424 kts 251°
2026-05-07 18:20 47.36143 -64.63692 42822 ft 424 kts 251°
2026-05-07 18:21 47.34555 -64.72031 42822 ft 422 kts 251°
2026-05-07 18:21 47.32962 -64.80357 42809 ft 420 kts 251°
2026-05-07 18:22 47.31379 -64.88601 42808 ft 418 kts 251°
2026-05-07 18:22 47.29781 -64.96875 42801 ft 420 kts 251°
2026-05-07 18:23 47.28184 -65.05120 42804 ft 422 kts 251°
2026-05-07 18:23 47.26560 -65.13464 42816 ft 425 kts 251°
2026-05-07 18:24 47.24928 -65.21817 42818 ft 424 kts 251°
2026-05-07 18:24 47.23560 -65.28786 42846 ft 422 kts 251°
2026-05-07 18:25 47.21936 -65.37026 42813 ft 421 kts 251°
2026-05-07 18:25 47.20306 -65.45267 42808 ft 419 kts 251°
2026-05-07 18:26 47.18676 -65.53470 42808 ft 419 kts 251°
2026-05-07 18:26 47.17031 -65.61712 42805 ft 421 kts 251°
2026-05-07 18:27 47.15375 -65.69979 42805 ft 423 kts 251°
2026-05-07 18:27 47.13698 -65.78310 42807 ft 425 kts 251°
2026-05-07 18:28 47.12022 -65.86608 42791 ft 424 kts 251°
2026-05-07 18:28 47.10352 -65.94835 42783 ft 422 kts 251°
2026-05-07 18:29 47.08674 -66.03073 42779 ft 420 kts 251°
2026-05-07 18:29 47.06990 -66.11301 42779 ft 421 kts 251°
2026-05-07 18:30 47.05301 -66.19522 42775 ft 422 kts 251°
2026-05-07 18:30 47.03600 -66.27767 42772 ft 422 kts 251°
2026-05-07 18:31 47.01891 -66.36014 42773 ft 423 kts 251°
2026-05-07 18:31 47.00182 -66.44235 42772 ft 425 kts 251°
2026-05-07 18:32 46.98454 -66.52508 42775 ft 426 kts 251°
2026-05-07 18:32 46.96712 -66.60819 42780 ft 424 kts 251°
2026-05-07 18:33 46.94979 -66.69056 42777 ft 422 kts 251°
2026-05-07 18:33 46.93243 -66.77249 42777 ft 421 kts 251°
2026-05-07 18:34 46.91510 -66.85430 42776 ft 421 kts 251°
2026-05-07 18:34 46.89764 -66.93598 42808 ft 422 kts 251°
2026-05-07 18:35 46.88020 -67.01770 42778 ft 424 kts 251°
2026-05-07 18:35 46.86258 -67.10007 42777 ft 425 kts 251°
2026-05-07 18:36 46.84516 -67.18260 42778 ft 424 kts 251°
2026-05-07 18:36 46.82762 -67.26450 42775 ft 422 kts 251°
2026-05-07 18:37 46.81011 -67.34640 42773 ft 420 kts 251°
2026-05-07 18:37 46.79261 -67.42770 42672 ft 419 kts 251°
2026-05-07 18:38 46.77515 -67.50860 42682 ft 417 kts 251°
2026-05-07 18:38 46.75765 -67.58933 42682 ft 418 kts 251°
2026-05-07 18:39 46.74006 -67.67016 42691 ft 420 kts 251°
2026-05-07 18:39 46.72241 -67.75095 42696 ft 421 kts 251°
2026-05-07 18:40 46.70443 -67.83293 42697 ft 423 kts 251°
2026-05-07 18:40 46.68648 -67.91445 42700 ft 422 kts 250°
2026-05-07 18:41 46.66864 -67.99520 42698 ft 420 kts 250°
2026-05-07 18:41 46.65072 -68.07595 42691 ft 419 kts 250°
2026-05-07 18:42 46.63277 -68.15657 42689 ft 417 kts 250°
2026-05-07 18:42 46.61483 -68.23679 42698 ft 418 kts 250°
2026-05-07 18:43 46.59672 -68.31750 42708 ft 420 kts 250°
2026-05-07 18:43 46.57857 -68.39805 42698 ft 423 kts 250°
2026-05-07 18:44 46.56025 -68.47926 42686 ft 421 kts 250°
2026-05-07 18:44 46.54192 -68.55974 42692 ft 419 kts 250°
2026-05-07 18:45 46.52367 -68.64007 42692 ft 419 kts 250°
2026-05-07 18:45 46.50517 -68.72071 42693 ft 421 kts 250°
2026-05-07 18:46 46.48673 -68.80125 42691 ft 422 kts 250°
2026-05-07 18:46 46.46805 -68.88225 42699 ft 423 kts 250°
2026-05-07 18:47 46.44930 -68.96334 42688 ft 424 kts 250°
2026-05-07 18:47 46.43054 -69.04414 42695 ft 421 kts 250°
2026-05-07 18:48 46.41189 -69.12420 42695 ft 419 kts 250°
2026-05-07 18:48 46.39328 -69.20378 42695 ft 417 kts 250°
2026-05-07 18:49 46.37456 -69.28351 42694 ft 419 kts 250°
2026-05-07 18:49 46.35568 -69.36368 42697 ft 421 kts 249°
2026-05-07 18:50 46.33666 -69.44411 42702 ft 423 kts 250°
2026-05-07 18:50 46.31751 -69.52481 42698 ft 423 kts 250°
2026-05-07 18:51 46.29842 -69.60498 42700 ft 422 kts 250°
2026-05-07 18:51 46.27926 -69.68514 42698 ft 420 kts 250°
2026-05-07 18:52 46.26013 -69.76487 42705 ft 420 kts 249°
2026-05-07 18:52 46.24096 -69.84450 42717 ft 422 kts 249°
2026-05-07 18:53 46.22151 -69.92500 42691 ft 424 kts 249°
2026-05-07 18:53 46.20202 -70.00538 42711 ft 424 kts 249°
2026-05-07 18:54 46.18256 -70.08530 42711 ft 422 kts 249°
2026-05-07 18:54 46.16319 -70.16464 42732 ft 420 kts 250°
2026-05-07 18:55 46.14372 -70.24405 42733 ft 419 kts 249°
2026-05-07 18:55 46.12419 -70.32346 42738 ft 421 kts 249°
2026-05-07 18:56 46.10449 -70.40325 42744 ft 424 kts 249°
2026-05-07 18:56 46.08469 -70.48322 42748 ft 423 kts 249°
2026-05-07 18:57 46.06507 -70.56213 42713 ft 416 kts 249°
2026-05-07 18:57 46.05535 -70.60119 41648 ft 415 kts 249°
2026-05-07 18:57 46.04555 -70.64040 40613 ft 417 kts 249°
2026-05-07 18:57 46.03573 -70.67968 39616 ft 416 kts 249°
2026-05-07 18:58 46.02594 -70.71878 38626 ft 414 kts 249°
2026-05-07 18:58 46.01624 -70.75738 38054 ft 402 kts 249°
2026-05-07 18:58 46.00687 -70.79468 37527 ft 392 kts 249°
2026-05-07 18:58 45.99841 -70.83163 37022 ft 390 kts 253°
2026-05-07 18:59 45.99268 -70.87005 36507 ft 399 kts 258°
2026-05-07 18:59 45.98978 -70.91045 35976 ft 412 kts 264°
2026-05-07 18:59 45.98901 -70.95209 35426 ft 418 kts 265°
2026-05-07 18:59 45.98816 -70.99402 34864 ft 416 kts 264°
2026-05-07 19:00 45.98721 -71.03522 34328 ft 410 kts 264°
2026-05-07 19:00 45.98634 -71.07546 33795 ft 404 kts 264°
2026-05-07 19:00 45.98549 -71.11571 33226 ft 401 kts 264°
2026-05-07 19:00 45.98460 -71.15578 32703 ft 403 kts 264°
2026-05-07 19:01 45.98366 -71.19625 32173 ft 407 kts 264°
2026-05-07 19:01 45.98272 -71.23721 31629 ft 411 kts 264°
2026-05-07 19:01 45.98179 -71.27813 31090 ft 410 kts 264°
2026-05-07 19:01 45.98085 -71.31892 30547 ft 405 kts 264°
2026-05-07 19:02 45.97990 -71.35899 30009 ft 397 kts 264°
2026-05-07 19:02 45.97894 -71.39824 29461 ft 389 kts 264°
2026-05-07 19:02 45.97798 -71.43667 28948 ft 382 kts 264°
2026-05-07 19:02 45.97702 -71.47483 28438 ft 381 kts 264°
2026-05-07 19:03 45.97605 -71.51299 27964 ft 382 kts 264°
2026-05-07 19:03 45.97507 -71.55111 27474 ft 382 kts 264°
2026-05-07 19:03 45.97409 -71.58924 27036 ft 381 kts 264°
2026-05-07 19:03 45.97309 -71.62710 26592 ft 377 kts 264°
2026-05-07 19:04 45.97209 -71.66456 26172 ft 373 kts 264°
2026-05-07 19:04 45.97108 -71.70161 25743 ft 369 kts 264°
2026-05-07 19:04 45.97008 -71.73794 25321 ft 366 kts 264°
2026-05-07 19:04 45.96906 -71.77482 24892 ft 364 kts 264°
2026-05-07 19:05 45.96804 -71.81102 24482 ft 361 kts 264°
2026-05-07 19:05 45.96704 -71.84651 24067 ft 359 kts 264°
2026-05-07 19:05 45.96601 -71.88230 23653 ft 357 kts 264°
2026-05-07 19:05 45.96498 -71.91784 23222 ft 355 kts 264°
2026-05-07 19:06 45.96394 -71.95322 22796 ft 353 kts 265°
2026-05-07 19:06 45.96185 -72.02327 21979 ft 349 kts 265°
2026-05-07 19:06 45.96079 -72.05809 21581 ft 350 kts 265°
2026-05-07 19:07 45.95973 -72.09298 21181 ft 349 kts 265°
2026-05-07 19:07 45.95866 -72.12780 20782 ft 347 kts 265°
2026-05-07 19:07 45.95759 -72.16236 20383 ft 345 kts 265°
2026-05-07 19:07 45.95650 -72.19674 19984 ft 344 kts 265°
2026-05-07 19:08 45.95542 -72.23089 19589 ft 343 kts 265°
2026-05-07 19:08 45.95432 -72.26519 19195 ft 343 kts 265°
2026-05-07 19:08 45.95321 -72.29939 18800 ft 342 kts 265°
2026-05-07 19:08 45.95210 -72.33354 18411 ft 342 kts 265°
2026-05-07 19:09 45.95067 -72.36725 18011 ft 342 kts 263°
2026-05-07 19:09 45.94623 -72.40083 17593 ft 342 kts 256°
2026-05-07 19:09 45.93846 -72.43361 17253 ft 342 kts 248°
2026-05-07 19:09 45.92809 -72.46370 16982 ft 341 kts 243°
2026-05-07 19:10 45.91678 -72.49377 16588 ft 343 kts 243°
2026-05-07 19:10 45.90557 -72.52405 16198 ft 342 kts 244°
2026-05-07 19:10 45.89440 -72.55417 15805 ft 340 kts 243°
2026-05-07 19:10 45.88324 -72.58408 15423 ft 339 kts 243°
2026-05-07 19:11 45.87585 -72.60379 15167 ft 338 kts 243°
2026-05-07 19:11 45.86470 -72.63363 14778 ft 338 kts 244°
2026-05-07 19:11 45.85360 -72.66335 14389 ft 338 kts 243°
2026-05-07 19:11 45.84250 -72.69299 13999 ft 337 kts 244°
2026-05-07 19:12 45.83143 -72.72252 13616 ft 335 kts 244°
2026-05-07 19:12 45.82040 -72.75192 13216 ft 334 kts 244°
2026-05-07 19:12 45.80943 -72.78113 12824 ft 332 kts 244°
2026-05-07 19:12 45.79849 -72.81017 12443 ft 330 kts 244°
2026-05-07 19:13 45.78771 -72.83873 12068 ft 320 kts 244°
2026-05-07 19:13 45.77741 -72.86598 11705 ft 301 kts 244°
2026-05-07 19:13 45.76780 -72.89139 11371 ft 282 kts 244°
2026-05-07 19:13 45.75872 -72.91543 11064 ft 268 kts 244°
2026-05-07 19:14 45.74997 -72.93858 10750 ft 261 kts 244°
2026-05-07 19:14 45.74134 -72.96143 10469 ft 262 kts 244°
2026-05-07 19:14 45.73256 -72.98463 10166 ft 268 kts 244°
2026-05-07 19:14 45.72387 -73.00797 9863 ft 269 kts 247°
2026-05-07 19:15 45.71803 -73.03341 9522 ft 264 kts 259°
2026-05-07 19:15 45.71531 -73.05883 9225 ft 260 kts 263°
2026-05-07 19:15 45.71259 -73.08456 8923 ft 258 kts 262°
2026-05-07 19:15 45.70987 -73.10994 8636 ft 259 kts 262°
2026-05-07 19:16 45.70614 -73.13487 8331 ft 259 kts 253°
2026-05-07 19:16 45.69803 -73.15746 8159 ft 253 kts 238°
2026-05-07 19:16 45.68849 -73.17829 8082 ft 249 kts 244°
2026-05-07 19:16 45.68085 -73.20076 8043 ft 252 kts 249°
2026-05-07 19:17 45.67690 -73.22474 7568 ft 249 kts 264°
2026-05-07 19:17 45.67514 -73.24941 6958 ft 247 kts 263°
2026-05-07 19:17 45.67183 -73.27348 6361 ft 247 kts 257°
2026-05-07 19:17 45.66698 -73.29673 5810 ft 243 kts 254°
2026-05-07 19:18 45.66215 -73.31980 5231 ft 241 kts 255°
2026-05-07 19:18 45.65771 -73.34287 4648 ft 239 kts 256°
2026-05-07 19:18 45.65336 -73.36578 4057 ft 239 kts 256°
2026-05-07 19:18 45.64904 -73.38794 3984 ft 224 kts 256°
2026-05-07 19:19 45.64484 -73.40951 3979 ft 229 kts 256°
2026-05-07 19:19 45.64051 -73.43183 3985 ft 236 kts 256°
2026-05-07 19:19 45.63608 -73.45453 3991 ft 239 kts 256°
2026-05-07 19:19 45.63160 -73.47745 3987 ft 238 kts 256°
2026-05-07 19:20 45.62726 -73.50004 3987 ft 238 kts 256°
2026-05-07 19:20 45.62160 -73.52222 3972 ft 241 kts 241°
2026-05-07 19:20 45.61050 -73.54081 3755 ft 250 kts 228°
2026-05-07 19:20 45.59768 -73.55739 3432 ft 248 kts 226°
2026-05-07 19:21 45.58504 -73.57376 3092 ft 238 kts 227°
2026-05-07 19:21 45.57340 -73.58932 2771 ft 220 kts 227°
2026-05-07 19:21 45.56255 -73.60354 2491 ft 205 kts 227°
2026-05-07 19:21 45.55235 -73.61688 2231 ft 191 kts 227°
2026-05-07 19:22 45.54333 -73.62880 1977 ft 160 kts 228°
2026-05-07 19:22 45.53577 -73.63872 1799 ft 132 kts 230°
2026-05-07 19:22 45.52943 -73.64706 1605 ft 122 kts 229°
2026-05-07 19:22 45.52328 -73.65521 1442 ft 119 kts 231°
2026-05-07 19:23 45.51704 -73.66345 1282 ft 127 kts 227°
2026-05-07 19:23 45.51056 -73.67189 1084 ft 124 kts 229°
2026-05-07 19:23 45.50394 -73.67992 836 ft 124 kts 229°
2026-05-07 19:23 45.49762 -73.68826 672 ft 125 kts 233°
2026-05-07 19:24 45.49133 -73.69739 495 ft 134 kts 230°
2026-05-07 19:24 45.48460 -73.70606 354 ft 130 kts 229°
2026-05-07 19:24 45.47800 -73.71468 198 ft 129 kts 230°
2026-05-07 19:24 45.47171 -73.72287 114 ft 104 kts 231°
2026-05-07 19:25 45.46795 -73.72806 110 ft 51 kts 217°
2026-05-07 19:25 45.46670 -73.72956 108 ft 6 kts 169°
2026-05-07 19:25 45.46681 -73.72923 107 ft 11 kts 42°
2026-05-07 19:25 45.46790 -73.72794 110 ft 27 kts 40°
2026-05-07 19:26 45.46935 -73.72607 111 ft 29 kts 44°
2026-05-07 19:26 45.47087 -73.72427 113 ft 24 kts 40°
2026-05-07 19:26 45.47201 -73.72252 113 ft 14 kts 68°
2026-05-07 19:26 45.47155 -73.72137 113 ft 14 kts 135°
2026-05-07 19:27 45.47105 -73.72057 116 ft 8 kts 130°
2026-05-07 19:27 45.47092 -73.72032 117 ft 1 kts 103°
2026-05-07 19:27 45.47118 -73.71989 117 ft 14 kts 38°
2026-05-07 19:27 45.47213 -73.71873 118 ft 20 kts 39°
2026-05-07 19:28 45.47328 -73.71738 119 ft 22 kts 49°
2026-05-07 19:28 45.47416 -73.71608 121 ft 8 kts 44°
2026-05-07 19:28 45.47467 -73.71542 123 ft 12 kts 41°
2026-05-07 19:28 45.47529 -73.71457 124 ft 7 kts 48°
2026-05-07 19:29 45.47529 -73.71410 125 ft 5 kts 128°
2026-05-07 19:29 45.47517 -73.71363 126 ft 5 kts 84°
2026-05-07 19:29 45.47505 -73.71303 125 ft 7 kts 132°
2026-05-07 19:29 45.47480 -73.71316 129 ft 0 kts 221°